Wetterdaten: Freitag, 15.01.2016
Datum Zeit Temp. A. Feuchte A. Luftdruck Regen Wind Richtung Richtung Sonnenschein ET UV Solar Taupunkt Windchill Windben Empfang
15.01.2016 00:00 1,9 C 84 % 1008,3 hPa 0,0 l/m 15,4 km/h (3 Bft) W-SW 244 0 min 0,000 mm 0,0 UV-I 0 W/m -0,5 C -4,9 C 24,1 km/h (4 Bft) 97,39 %
15.01.2016 00:05 1,9 C 84 % 1008,3 hPa 0,0 l/m 15,5 km/h (3 Bft) W-SW 242 0 min 0,000 mm 0,0 UV-I 0 W/m -0,5 C -5,0 C 24,1 km/h (4 Bft) 100,00 %
15.01.2016 00:10 1,9 C 85 % 1008,5 hPa 0,0 l/m 16,1 km/h (3 Bft) W 280 0 min 0,000 mm 0,0 UV-I 0 W/m -0,3 C -5,3 C 27,4 km/h (4 Bft) 99,11 %
15.01.2016 00:15 1,8 C 86 % 1008,4 hPa 0,0 l/m 17,0 km/h (3 Bft) W-SW 238 0 min 0,000 mm 0,0 UV-I 0 W/m -0,3 C -5,9 C 30,6 km/h (5 Bft) 100,00 %
15.01.2016 00:20 1,8 C 87 % 1008,6 hPa 0,0 l/m 14,6 km/h (3 Bft) W-SW 243 0 min 0,000 mm 0,0 UV-I 0 W/m -0,1 C -4,6 C 24,1 km/h (4 Bft) 98,21 %
15.01.2016 00:25 1,7 C 88 % 1008,5 hPa 0,0 l/m 14,7 km/h (3 Bft) SW 229 0 min 0,000 mm 0,0 UV-I 0 W/m -0,1 C -4,7 C 24,1 km/h (4 Bft) 100,00 %
15.01.2016 00:30 1,6 C 89 % 1008,6 hPa 0,0 l/m 15,2 km/h (3 Bft) S-SW 208 0 min 0,000 mm 0,0 UV-I 0 W/m -0,0 C -5,2 C 25,7 km/h (4 Bft) 99,21 %
15.01.2016 00:35 1,5 C 90 % 1008,7 hPa 0,0 l/m 17,3 km/h (3 Bft) W-SW 243 0 min 0,000 mm 0,0 UV-I 0 W/m 0,0 C -6,4 C 27,4 km/h (4 Bft) 100,00 %
15.01.2016 00:40 1,5 C 91 % 1008,8 hPa 0,0 l/m 15,7 km/h (3 Bft) W-SW 246 0 min 0,000 mm 0,0 UV-I 0 W/m 0,2 C -5,6 C 24,1 km/h (4 Bft) 98,32 %
15.01.2016 00:45 1,5 C 91 % 1008,9 hPa 0,0 l/m 15,4 km/h (3 Bft) SW 224 0 min 0,000 mm 0,0 UV-I 0 W/m 0,2 C -5,4 C 22,5 km/h (4 Bft) 96,75 %
15.01.2016 00:50 1,5 C 92 % 1008,9 hPa 0,0 l/m 16,0 km/h (3 Bft) W-SW 237 0 min 0,000 mm 0,0 UV-I 0 W/m 0,3 C -5,7 C 22,5 km/h (4 Bft) 97,46 %
15.01.2016 00:55 1,6 C 92 % 1008,9 hPa 0,0 l/m 14,8 km/h (3 Bft) W-SW 242 0 min 0,000 mm 0,0 UV-I 0 W/m 0,4 C -4,9 C 22,5 km/h (4 Bft) 98,25 %
15.01.2016 01:00 1,6 C 92 % 1008,8 hPa 0,0 l/m 14,3 km/h (3 Bft) S-SW 212 0 min 0,025 mm 0,0 UV-I 0 W/m 0,4 C -4,6 C 20,9 km/h (4 Bft) 97,52 %
15.01.2016 01:05 1,6 C 92 % 1008,9 hPa 0,0 l/m 14,4 km/h (3 Bft) W-SW 248 0 min 0,000 mm 0,0 UV-I 0 W/m 0,4 C -4,7 C 24,1 km/h (4 Bft) 95,76 %
15.01.2016 01:10 1,6 C 92 % 1008,9 hPa 0,0 l/m 14,6 km/h (3 Bft) W-SW 253 0 min 0,000 mm 0,0 UV-I 0 W/m 0,4 C -4,8 C 24,1 km/h (4 Bft) 95,83 %
15.01.2016 01:15 1,6 C 92 % 1008,9 hPa 0,0 l/m 15,4 km/h (3 Bft) SW 223 0 min 0,000 mm 0,0 UV-I 0 W/m 0,4 C -5,3 C 25,7 km/h (4 Bft) 97,46 %
15.01.2016 01:20 1,7 C 92 % 1009,0 hPa 0,0 l/m 14,0 km/h (3 Bft) SW 215 0 min 0,000 mm 0,0 UV-I 0 W/m 0,5 C -4,3 C 20,9 km/h (4 Bft) 98,17 %
15.01.2016 01:25 1,7 C 92 % 1009,1 hPa 0,0 l/m 15,6 km/h (3 Bft) W-SW 242 0 min 0,000 mm 0,0 UV-I 0 W/m 0,5 C -5,3 C 24,1 km/h (4 Bft) 99,07 %
15.01.2016 01:30 1,8 C 92 % 1009,1 hPa 0,0 l/m 14,5 km/h (3 Bft) W-SW 238 0 min 0,000 mm 0,0 UV-I 0 W/m 0,6 C -4,5 C 22,5 km/h (4 Bft) 97,25 %
15.01.2016 01:35 1,8 C 92 % 1009,1 hPa 0,0 l/m 13,1 km/h (3 Bft) W 261 0 min 0,000 mm 0,0 UV-I 0 W/m 0,6 C -3,7 C 22,5 km/h (4 Bft) 100,00 %
15.01.2016 01:40 1,8 C 91 % 1009,1 hPa 0,0 l/m 12,9 km/h (3 Bft) W-SW 249 0 min 0,000 mm 0,0 UV-I 0 W/m 0,5 C -3,5 C 20,9 km/h (4 Bft) 100,00 %
15.01.2016 01:45 1,8 C 91 % 1009,1 hPa 0,0 l/m 10,8 km/h (2 Bft) SW 217 0 min 0,000 mm 0,0 UV-I 0 W/m 0,5 C -2,1 C 16,1 km/h (3 Bft) 99,13 %
15.01.2016 01:50 1,9 C 91 % 1009,2 hPa 0,0 l/m 9,6 km/h (2 Bft) SW 233 0 min 0,000 mm 0,0 UV-I 0 W/m 0,6 C -1,0 C 17,7 km/h (3 Bft) 99,12 %
15.01.2016 01:55 1,9 C 91 % 1009,3 hPa 0,0 l/m 7,7 km/h (2 Bft) SW 215 0 min 0,000 mm 0,0 UV-I 0 W/m 0,6 C 0,6 C 16,1 km/h (3 Bft) 99,17 %
15.01.2016 02:00 1,9 C 91 % 1009,4 hPa 0,0 l/m 8,7 km/h (2 Bft) W-SW 245 0 min 0,000 mm 0,0 UV-I 0 W/m 0,6 C -0,3 C 14,5 km/h (3 Bft) 100,00 %
15.01.2016 02:05 1,9 C 90 % 1009,4 hPa 0,0 l/m 8,3 km/h (2 Bft) W-SW 237 0 min 0,000 mm 0,0 UV-I 0 W/m 0,4 C 0,1 C 16,1 km/h (3 Bft) 99,06 %
15.01.2016 02:10 1,9 C 90 % 1009,4 hPa 0,0 l/m 8,4 km/h (2 Bft) SW 219 0 min 0,000 mm 0,0 UV-I 0 W/m 0,4 C -0,0 C 17,7 km/h (3 Bft) 99,19 %
15.01.2016 02:15 2,0 C 90 % 1009,5 hPa 0,0 l/m 7,9 km/h (2 Bft) SW 221 0 min 0,000 mm 0,0 UV-I 0 W/m 0,5 C 0,5 C 16,1 km/h (3 Bft) 98,33 %
15.01.2016 02:20 2,0 C 90 % 1009,5 hPa 0,0 l/m 8,3 km/h (2 Bft) S-SW 206 0 min 0,000 mm 0,0 UV-I 0 W/m 0,5 C 0,2 C 14,5 km/h (3 Bft) 100,00 %
15.01.2016 02:25 1,9 C 90 % 1009,5 hPa 0,0 l/m 9,2 km/h (2 Bft) S-SW 192 0 min 0,000 mm 0,0 UV-I 0 W/m 0,4 C -0,7 C 14,5 km/h (3 Bft) 99,17 %
15.01.2016 02:30 1,9 C 90 % 1009,6 hPa 0,0 l/m 8,3 km/h (2 Bft) S-SW 209 0 min 0,000 mm 0,0 UV-I 0 W/m 0,4 C 0,1 C 14,5 km/h (3 Bft) 100,00 %
15.01.2016 02:35 2,1 C 90 % 1009,5 hPa 0,0 l/m 10,6 km/h (2 Bft) S-SW 205 0 min 0,000 mm 0,0 UV-I 0 W/m 0,6 C -1,6 C 16,1 km/h (3 Bft) 98,21 %
15.01.2016 02:40 2,1 C 89 % 1009,6 hPa 0,0 l/m 9,8 km/h (2 Bft) S 186 0 min 0,000 mm 0,0 UV-I 0 W/m 0,5 C -1,0 C 14,5 km/h (3 Bft) 99,13 %
15.01.2016 02:45 2,1 C 89 % 1009,6 hPa 0,0 l/m 7,5 km/h (2 Bft) S-SW 208 0 min 0,000 mm 0,0 UV-I 0 W/m 0,5 C 1,0 C 12,9 km/h (3 Bft) 98,39 %
15.01.2016 02:50 2,2 C 89 % 1009,6 hPa 0,0 l/m 6,7 km/h (2 Bft) W-SW 242 0 min 0,000 mm 0,0 UV-I 0 W/m 0,6 C 1,9 C 11,3 km/h (2 Bft) 96,52 %
15.01.2016 02:55 2,1 C 89 % 1009,6 hPa 0,0 l/m 9,2 km/h (2 Bft) SW 225 0 min 0,000 mm 0,0 UV-I 0 W/m 0,5 C -0,5 C 16,1 km/h (3 Bft) 97,37 %
15.01.2016 03:00 2,1 C 89 % 1009,5 hPa 0,0 l/m 9,4 km/h (2 Bft) W-SW 240 0 min 0,000 mm 0,0 UV-I 0 W/m 0,5 C -0,7 C 14,5 km/h (3 Bft) 96,52 %
15.01.2016 03:05 2,1 C 89 % 1009,5 hPa 0,0 l/m 9,9 km/h (2 Bft) SW 234 0 min 0,000 mm 0,0 UV-I 0 W/m 0,5 C -1,1 C 17,7 km/h (3 Bft) 96,52 %
15.01.2016 03:10 2,1 C 89 % 1009,6 hPa 0,0 l/m 8,7 km/h (2 Bft) S-SW 202 0 min 0,000 mm 0,0 UV-I 0 W/m 0,5 C -0,1 C 12,9 km/h (3 Bft) 97,62 %
15.01.2016 03:15 2,1 C 89 % 1009,6 hPa 0,0 l/m 9,4 km/h (2 Bft) SW 225 0 min 0,000 mm 0,0 UV-I 0 W/m 0,5 C -0,7 C 16,1 km/h (3 Bft) 97,39 %
15.01.2016 03:20 2,1 C 88 % 1009,5 hPa 0,0 l/m 9,7 km/h (2 Bft) SW 223 0 min 0,000 mm 0,0 UV-I 0 W/m 0,3 C -0,9 C 17,7 km/h (3 Bft) 96,43 %
15.01.2016 03:25 2,1 C 88 % 1009,4 hPa 0,0 l/m 11,2 km/h (2 Bft) W-SW 240 0 min 0,000 mm 0,0 UV-I 0 W/m 0,3 C -2,0 C 19,3 km/h (3 Bft) 99,15 %
15.01.2016 03:30 2,1 C 88 % 1009,5 hPa 0,0 l/m 12,1 km/h (2 Bft) W-SW 250 0 min 0,000 mm 0,0 UV-I 0 W/m 0,3 C -2,7 C 20,9 km/h (4 Bft) 100,00 %
15.01.2016 03:35 2,1 C 88 % 1009,4 hPa 0,0 l/m 12,1 km/h (2 Bft) S-SW 193 0 min 0,000 mm 0,0 UV-I 0 W/m 0,3 C -2,7 C 19,3 km/h (3 Bft) 98,45 %
15.01.2016 03:40 2,2 C 88 % 1009,4 hPa 0,0 l/m 11,5 km/h (2 Bft) S 171 0 min 0,000 mm 0,0 UV-I 0 W/m 0,4 C -2,1 C 20,9 km/h (4 Bft) 100,00 %
15.01.2016 03:45 2,2 C 88 % 1009,3 hPa 0,0 l/m 9,9 km/h (2 Bft) SW 223 0 min 0,000 mm 0,0 UV-I 0 W/m 0,4 C -0,9 C 16,1 km/h (3 Bft) 100,00 %
15.01.2016 03:50 2,2 C 87 % 1009,3 hPa 0,0 l/m 11,9 km/h (2 Bft) S-SW 194 0 min 0,000 mm 0,0 UV-I 0 W/m 0,3 C -2,4 C 17,7 km/h (3 Bft) 100,00 %
15.01.2016 03:55 2,3 C 87 % 1009,2 hPa 0,0 l/m 14,7 km/h (3 Bft) S 190 0 min 0,000 mm 0,0 UV-I 0 W/m 0,4 C -4,0 C 24,1 km/h (4 Bft) 99,11 %
15.01.2016 04:00 2,3 C 87 % 1009,1 hPa 0,0 l/m 13,4 km/h (3 Bft) SW 232 0 min 0,000 mm 0,0 UV-I 0 W/m 0,4 C -3,3 C 20,9 km/h (4 Bft) 100,00 %
15.01.2016 04:05 2,3 C 86 % 1009,1 hPa 0,0 l/m 13,9 km/h (3 Bft) S-SW 208 0 min 0,000 mm 0,0 UV-I 0 W/m 0,2 C -3,6 C 24,1 km/h (4 Bft) 98,84 %
15.01.2016 04:10 2,3 C 86 % 1009,0 hPa 0,0 l/m 13,2 km/h (3 Bft) S-SW 205 0 min 0,000 mm 0,0 UV-I 0 W/m 0,2 C -3,1 C 20,9 km/h (4 Bft) 100,00 %
15.01.2016 04:15 2,4 C 85 % 1008,9 hPa 0,0 l/m 13,2 km/h (3 Bft) S 188 0 min 0,000 mm 0,0 UV-I 0 W/m 0,1 C -3,0 C 20,9 km/h (4 Bft) 98,35 %
15.01.2016 04:20 2,4 C 85 % 1008,7 hPa 0,0 l/m 15,2 km/h (3 Bft) S 177 0 min 0,000 mm 0,0 UV-I 0 W/m 0,1 C -4,2 C 24,1 km/h (4 Bft) 99,15 %
15.01.2016 04:25 2,3 C 85 % 1008,7 hPa 0,0 l/m 13,9 km/h (3 Bft) S 190 0 min 0,000 mm 0,0 UV-I 0 W/m 0,0 C -3,6 C 25,7 km/h (4 Bft) 99,17 %
15.01.2016 04:30 2,3 C 85 % 1008,7 hPa 0,0 l/m 14,6 km/h (3 Bft) S-SW 212 0 min 0,000 mm 0,0 UV-I 0 W/m 0,0 C -4,0 C 22,5 km/h (4 Bft) 100,00 %
15.01.2016 04:35 2,3 C 84 % 1008,7 hPa 0,0 l/m 16,0 km/h (3 Bft) S-SW 207 0 min 0,000 mm 0,0 UV-I 0 W/m -0,1 C -4,7 C 24,1 km/h (4 Bft) 99,08 %
15.01.2016 04:40 2,3 C 84 % 1008,8 hPa 0,0 l/m 16,0 km/h (3 Bft) S 184 0 min 0,000 mm 0,0 UV-I 0 W/m -0,1 C -4,7 C 24,1 km/h (4 Bft) 99,11 %
15.01.2016 04:45 2,3 C 84 % 1008,7 hPa 0,0 l/m 15,0 km/h (3 Bft) S-SW 204 0 min 0,000 mm 0,0 UV-I 0 W/m -0,1 C -4,2 C 22,5 km/h (4 Bft) 100,00 %
15.01.2016 04:50 2,4 C 84 % 1008,7 hPa 0,0 l/m 15,4 km/h (3 Bft) S-SW 207 0 min 0,000 mm 0,0 UV-I 0 W/m -0,0 C -4,3 C 29,0 km/h (5 Bft) 98,31 %
15.01.2016 04:55 2,4 C 83 % 1008,7 hPa 0,0 l/m 15,8 km/h (3 Bft) S-SW 212 0 min 0,000 mm 0,0 UV-I 0 W/m -0,2 C -4,5 C 27,4 km/h (4 Bft) 97,39 %
15.01.2016 05:00 2,5 C 83 % 1008,8 hPa 0,0 l/m 16,5 km/h (3 Bft) SW 227 0 min 0,026 mm 0,0 UV-I 0 W/m -0,1 C -4,8 C 27,4 km/h (4 Bft) 97,44 %
15.01.2016 05:05 2,6 C 83 % 1008,7 hPa 0,0 l/m 11,3 km/h (2 Bft) S 173 0 min 0,000 mm 0,0 UV-I 0 W/m 0,0 C -1,5 C 19,3 km/h (3 Bft) 95,97 %
15.01.2016 05:10 2,6 C 83 % 1008,6 hPa 0,0 l/m 12,8 km/h (3 Bft) SW 221 0 min 0,000 mm 0,0 UV-I 0 W/m 0,0 C -2,5 C 22,5 km/h (4 Bft) 97,44 %
15.01.2016 05:15 2,5 C 83 % 1008,7 hPa 0,0 l/m 10,8 km/h (2 Bft) S-SW 209 0 min 0,000 mm 0,0 UV-I 0 W/m -0,1 C -1,3 C 19,3 km/h (3 Bft) 96,61 %
15.01.2016 05:20 2,4 C 82 % 1008,7 hPa 0,0 l/m 12,6 km/h (3 Bft) W-SW 244 0 min 0,000 mm 0,0 UV-I 0 W/m -0,4 C -2,6 C 20,9 km/h (4 Bft) 97,32 %
15.01.2016 05:25 2,2 C 83 % 1008,6 hPa 0,0 l/m 13,5 km/h (3 Bft) W-SW 250 0 min 0,000 mm 0,0 UV-I 0 W/m -0,4 C -3,4 C 19,3 km/h (3 Bft) 98,37 %
15.01.2016 05:30 2,1 C 84 % 1008,6 hPa 0,0 l/m 10,8 km/h (2 Bft) SW 224 0 min 0,000 mm 0,0 UV-I 0 W/m -0,3 C -1,7 C 17,7 km/h (3 Bft) 99,12 %
15.01.2016 05:35 2,1 C 84 % 1008,7 hPa 0,0 l/m 9,4 km/h (2 Bft) SW 227 0 min 0,000 mm 0,0 UV-I 0 W/m -0,3 C -0,7 C 16,1 km/h (3 Bft) 98,33 %
15.01.2016 05:40 1,9 C 85 % 1008,7 hPa 0,0 l/m 8,7 km/h (2 Bft) S 179 0 min 0,000 mm 0,0 UV-I 0 W/m -0,3 C -0,3 C 16,1 km/h (3 Bft) 100,00 %
15.01.2016 05:45 1,9 C 84 % 1008,6 hPa 0,0 l/m 10,0 km/h (2 Bft) S 190 0 min 0,000 mm 0,0 UV-I 0 W/m -0,5 C -1,4 C 16,1 km/h (3 Bft) 100,00 %
15.01.2016 05:50 2,1 C 84 % 1008,5 hPa 0,0 l/m 9,1 km/h (2 Bft) S 190 0 min 0,000 mm 0,0 UV-I 0 W/m -0,3 C -0,4 C 14,5 km/h (3 Bft) 100,00 %
15.01.2016 05:55 2,1 C 84 % 1008,4 hPa 0,0 l/m 10,6 km/h (2 Bft) W 259 0 min 0,000 mm 0,0 UV-I 0 W/m -0,3 C -1,6 C 19,3 km/h (3 Bft) 99,15 %
15.01.2016 06:00 2,2 C 83 % 1008,5 hPa 0,0 l/m 11,7 km/h (2 Bft) SW 220 0 min 0,025 mm 0,0 UV-I 0 W/m -0,4 C -2,3 C 25,7 km/h (4 Bft) 100,00 %
15.01.2016 06:05 2,3 C 82 % 1008,5 hPa 0,0 l/m 12,7 km/h (3 Bft) SW 221 0 min 0,000 mm 0,0 UV-I 0 W/m -0,4 C -2,8 C 20,9 km/h (4 Bft) 100,00 %
15.01.2016 06:10 2,4 C 81 % 1008,5 hPa 0,0 l/m 12,9 km/h (3 Bft) S 191 0 min 0,000 mm 0,0 UV-I 0 W/m -0,5 C -2,8 C 20,9 km/h (4 Bft) 99,08 %
15.01.2016 06:15 2,4 C 81 % 1008,5 hPa 0,0 l/m 13,0 km/h (3 Bft) SW 233 0 min 0,000 mm 0,0 UV-I 0 W/m -0,5 C -2,9 C 24,1 km/h (4 Bft) 100,00 %
15.01.2016 06:20 2,4 C 81 % 1008,5 hPa 0,0 l/m 16,7 km/h (3 Bft) SW 227 0 min 0,000 mm 0,0 UV-I 0 W/m -0,5 C -5,0 C 24,1 km/h (4 Bft) 100,00 %
15.01.2016 06:25 2,3 C 81 % 1008,4 hPa 0,0 l/m 13,9 km/h (3 Bft) SW 227 0 min 0,000 mm 0,0 UV-I 0 W/m -0,6 C -3,6 C 22,5 km/h (4 Bft) 99,13 %
15.01.2016 06:30 2,3 C 81 % 1008,4 hPa 0,0 l/m 13,7 km/h (3 Bft) W-SW 242 0 min 0,000 mm 0,0 UV-I 0 W/m -0,6 C -3,4 C 25,7 km/h (4 Bft) 99,17 %
15.01.2016 06:35 2,3 C 80 % 1008,5 hPa 0,0 l/m 14,4 km/h (3 Bft) SW 224 0 min 0,000 mm 0,0 UV-I 0 W/m -0,8 C -3,9 C 24,1 km/h (4 Bft) 99,13 %
15.01.2016 06:40 2,3 C 79 % 1008,5 hPa 0,0 l/m 16,3 km/h (3 Bft) SW 234 0 min 0,000 mm 0,0 UV-I 0 W/m -1,0 C -4,9 C 27,4 km/h (4 Bft) 99,15 %
15.01.2016 06:45 2,3 C 79 % 1008,5 hPa 0,0 l/m 16,5 km/h (3 Bft) W-NW 283 0 min 0,000 mm 0,0 UV-I 0 W/m -1,0 C -5,0 C 29,0 km/h (5 Bft) 99,19 %
15.01.2016 06:50 2,4 C 78 % 1008,5 hPa 0,0 l/m 16,0 km/h (3 Bft) W 261 0 min 0,000 mm 0,0 UV-I 0 W/m -1,0 C -4,6 C 25,7 km/h (4 Bft) 99,11 %
15.01.2016 06:55 2,6 C 77 % 1008,5 hPa 0,0 l/m 17,3 km/h (3 Bft) SW 229 0 min 0,000 mm 0,0 UV-I 0 W/m -1,0 C -5,0 C 30,6 km/h (5 Bft) 98,29 %
15.01.2016 07:00 2,6 C 77 % 1008,5 hPa 0,0 l/m 17,2 km/h (3 Bft) W-SW 246 0 min 0,026 mm 0,0 UV-I 0 W/m -1,0 C -5,0 C 27,4 km/h (4 Bft) 97,39 %
15.01.2016 07:05 2,7 C 76 % 1008,4 hPa 0,0 l/m 16,4 km/h (3 Bft) S-SW 205 0 min 0,000 mm 0,0 UV-I 0 W/m -1,1 C -4,5 C 29,0 km/h (5 Bft) 95,87 %
15.01.2016 07:10 2,7 C 76 % 1008,3 hPa 0,0 l/m 17,0 km/h (3 Bft) S-SW 205 0 min 0,000 mm 0,0 UV-I 0 W/m -1,1 C -4,8 C 29,0 km/h (5 Bft) 96,30 %
15.01.2016 07:15 2,7 C 76 % 1008,3 hPa 0,0 l/m 15,3 km/h (3 Bft) S 186 0 min 0,000 mm 0,0 UV-I 0 W/m -1,1 C -3,9 C 27,4 km/h (4 Bft) 97,52 %
15.01.2016 07:20 2,7 C 76 % 1008,3 hPa 0,0 l/m 17,2 km/h (3 Bft) SW 236 0 min 0,000 mm 0,0 UV-I 0 W/m -1,1 C -4,9 C 30,6 km/h (5 Bft) 97,52 %
15.01.2016 07:25 2,6 C 77 % 1008,2 hPa 0,0 l/m 17,5 km/h (3 Bft) W-SW 246 0 min 0,000 mm 0,0 UV-I 0 W/m -1,0 C -5,1 C 27,4 km/h (4 Bft) 97,30 %
15.01.2016 07:30 2,5 C 77 % 1008,2 hPa 0,0 l/m 17,9 km/h (3 Bft) SW 216 0 min 0,000 mm 0,0 UV-I 0 W/m -1,1 C -5,4 C 25,7 km/h (4 Bft) 98,35 %
15.01.2016 07:35 2,4 C 77 % 1008,2 hPa 0,0 l/m 17,3 km/h (3 Bft) S-SW 210 0 min 0,000 mm 0,0 UV-I 0 W/m -1,2 C -5,3 C 25,7 km/h (4 Bft) 100,00 %
15.01.2016 07:40 2,3 C 77 % 1008,2 hPa 0,0 l/m 18,7 km/h (3 Bft) SW 232 0 min 0,000 mm 0,0 UV-I 0 W/m -1,3 C -6,1 C 25,7 km/h (4 Bft) 96,61 %
15.01.2016 07:45 2,3 C 77 % 1008,1 hPa 0,0 l/m 19,0 km/h (3 Bft) SW 227 0 min 0,000 mm 0,0 UV-I 0 W/m -1,3 C -6,2 C 30,6 km/h (5 Bft) 99,15 %
15.01.2016 07:50 2,3 C 77 % 1008,1 hPa 0,0 l/m 18,7 km/h (3 Bft) SW 234 0 min 0,000 mm 0,0 UV-I 0 W/m -1,3 C -6,1 C 29,0 km/h (5 Bft) 99,17 %
15.01.2016 07:55 2,3 C 76 % 1008,1 hPa 0,0 l/m 18,6 km/h (3 Bft) W 263 0 min 0,000 mm 0,0 UV-I 4 W/m -1,5 C -6,0 C 27,4 km/h (4 Bft) 100,00 %
15.01.2016 08:00 2,3 C 76 % 1008,1 hPa 0,0 l/m 17,7 km/h (3 Bft) W-SW 254 0 min 0,025 mm 0,0 UV-I 5 W/m -1,5 C -5,6 C 27,4 km/h (4 Bft) 100,00 %
15.01.2016 08:05 2,2 C 76 % 1008,2 hPa 0,0 l/m 17,8 km/h (3 Bft) W-SW 251 0 min 0,000 mm 0,0 UV-I 7 W/m -1,6 C -5,8 C 27,4 km/h (4 Bft) 99,07 %
15.01.2016 08:10 2,3 C 76 % 1008,3 hPa 0,0 l/m 18,6 km/h (3 Bft) W-SW 252 0 min 0,000 mm 0,0 UV-I 7 W/m -1,5 C -6,0 C 25,7 km/h (4 Bft) 100,00 %
15.01.2016 08:15 2,3 C 76 % 1008,2 hPa 0,0 l/m 17,3 km/h (3 Bft) W-SW 249 0 min 0,000 mm 0,0 UV-I 7 W/m -1,5 C -5,4 C 30,6 km/h (5 Bft) 100,00 %
15.01.2016 08:20 2,3 C 77 % 1008,2 hPa 0,0 l/m 16,0 km/h (3 Bft) W 260 0 min 0,000 mm 0,0 UV-I 9 W/m -1,3 C -4,7 C 24,1 km/h (4 Bft) 99,17 %
15.01.2016 08:25 2,2 C 78 % 1008,2 hPa 0,0 l/m 14,3 km/h (3 Bft) W-SW 252 0 min 0,000 mm 0,0 UV-I 10 W/m -1,2 C -3,9 C 22,5 km/h (4 Bft) 97,46 %
15.01.2016 08:30 2,1 C 78 % 1008,2 hPa 0,0 l/m 14,7 km/h (3 Bft) W 273 0 min 0,000 mm 0,0 UV-I 11 W/m -1,3 C -4,3 C 22,5 km/h (4 Bft) 99,17 %
15.01.2016 08:35 2,0 C 79 % 1008,2 hPa 0,0 l/m 13,7 km/h (3 Bft) W 267 0 min 0,000 mm 0,0 UV-I 12 W/m -1,2 C -3,8 C 22,5 km/h (4 Bft) 100,00 %
15.01.2016 08:40 1,9 C 79 % 1008,3 hPa 0,0 l/m 13,9 km/h (3 Bft) W-SW 249 0 min 0,000 mm 0,0 UV-I 15 W/m -1,3 C -4,0 C 24,1 km/h (4 Bft) 100,00 %
15.01.2016 08:45 1,9 C 79 % 1008,3 hPa 0,0 l/m 11,8 km/h (2 Bft) W-SW 258 0 min 0,000 mm 0,0 UV-I 17 W/m -1,3 C -2,7 C 17,7 km/h (3 Bft) 100,00 %
15.01.2016 08:50 1,9 C 80 % 1008,3 hPa 0,0 l/m 9,8 km/h (2 Bft) W-SW 256 0 min 0,000 mm 0,0 UV-I 24 W/m -1,2 C -1,2 C 16,1 km/h (3 Bft) 100,00 %
15.01.2016 08:55 1,9 C 80 % 1008,3 hPa 0,0 l/m 9,5 km/h (2 Bft) W 266 0 min 0,000 mm 0,0 UV-I 21 W/m -1,2 C -1,0 C 14,5 km/h (3 Bft) 100,00 %
15.01.2016 09:00 1,9 C 80 % 1008,2 hPa 0,0 l/m 9,7 km/h (2 Bft) W-SW 248 0 min 0,025 mm 0,0 UV-I 24 W/m -1,2 C -1,1 C 16,1 km/h (3 Bft) 96,49 %
15.01.2016 09:05 1,9 C 79 % 1008,2 hPa 0,0 l/m 10,2 km/h (2 Bft) SW 231 0 min 0,000 mm 0,0 UV-I 31 W/m -1,3 C -1,5 C 17,7 km/h (3 Bft) 98,26 %
15.01.2016 09:10 2,1 C 79 % 1008,2 hPa 0,0 l/m 11,2 km/h (2 Bft) W-SW 251 0 min 0,000 mm 0,0 UV-I 29 W/m -1,2 C -2,0 C 17,7 km/h (3 Bft) 96,03 %
15.01.2016 09:15 2,1 C 78 % 1008,1 hPa 0,0 l/m 12,0 km/h (2 Bft) W-SW 244 0 min 0,000 mm 0,0 UV-I 43 W/m -1,3 C -2,6 C 17,7 km/h (3 Bft) 97,46 %
15.01.2016 09:20 2,2 C 78 % 1008,3 hPa 0,0 l/m 12,2 km/h (2 Bft) SW 236 0 min 0,000 mm 0,0 UV-I 97 W/m -1,2 C -2,6 C 20,9 km/h (4 Bft) 96,33 %
15.01.2016 09:25 2,3 C 77 % 1008,4 hPa 0,0 l/m 11,6 km/h (2 Bft) W-SW 254 0 min 0,000 mm 0,0 UV-I 89 W/m -1,3 C -2,1 C 19,3 km/h (3 Bft) 97,50 %
15.01.2016 09:30 2,6 C 76 % 1008,4 hPa 0,0 l/m 12,8 km/h (3 Bft) W 267 5 min 0,000 mm 0,0 UV-I 181 W/m -1,2 C -2,5 C 19,3 km/h (3 Bft) 97,39 %
15.01.2016 09:35 2,8 C 75 % 1008,4 hPa 0,0 l/m 16,6 km/h (3 Bft) W-SW 258 5 min 0,000 mm 0,0 UV-I 179 W/m -1,2 C -4,4 C 27,4 km/h (4 Bft) 97,50 %
15.01.2016 09:40 2,9 C 74 % 1008,5 hPa 0,0 l/m 15,7 km/h (3 Bft) W-NW 284 5 min 0,000 mm 0,0 UV-I 131 W/m -1,3 C -3,8 C 24,1 km/h (4 Bft) 99,17 %
15.01.2016 09:45 2,9 C 74 % 1008,5 hPa 0,0 l/m 14,6 km/h (3 Bft) W 259 5 min 0,000 mm 0,0 UV-I 131 W/m -1,3 C -3,2 C 22,5 km/h (4 Bft) 97,25 %
15.01.2016 09:50 2,9 C 74 % 1008,5 hPa 0,0 l/m 14,8 km/h (3 Bft) W 263 0 min 0,000 mm 0,0 UV-I 97 W/m -1,3 C -3,4 C 22,5 km/h (4 Bft) 100,00 %
15.01.2016 09:55 2,9 C 75 % 1008,5 hPa 0,0 l/m 14,6 km/h (3 Bft) W-SW 243 0 min 0,000 mm 0,0 UV-I 101 W/m -1,1 C -3,2 C 24,1 km/h (4 Bft) 100,00 %
15.01.2016 10:00 2,9 C 74 % 1008,5 hPa 0,0 l/m 15,7 km/h (3 Bft) W-SW 257 0 min 0,051 mm 0,0 UV-I 109 W/m -1,3 C -3,8 C 27,4 km/h (4 Bft) 99,19 %
15.01.2016 10:05 3,0 C 74 % 1008,7 hPa 0,0 l/m 14,4 km/h (3 Bft) SW 234 0 min 0,000 mm 0,0 UV-I 114 W/m -1,2 C -3,0 C 27,4 km/h (4 Bft) 100,00 %
15.01.2016 10:10 3,0 C 74 % 1008,8 hPa 0,0 l/m 13,9 km/h (3 Bft) W 273 0 min 0,000 mm 0,0 UV-I 68 W/m -1,2 C -2,7 C 20,9 km/h (4 Bft) 99,19 %
15.01.2016 10:15 3,0 C 74 % 1008,8 hPa 0,0 l/m 13,8 km/h (3 Bft) W-SW 257 0 min 0,000 mm 0,0 UV-I 43 W/m -1,2 C -2,7 C 20,9 km/h (4 Bft) 100,00 %
15.01.2016 10:20 2,9 C 73 % 1009,0 hPa 0,0 l/m 14,8 km/h (3 Bft) W-SW 250 0 min 0,000 mm 0,0 UV-I 31 W/m -1,5 C -3,4 C 27,4 km/h (4 Bft) 100,00 %
15.01.2016 10:25 2,9 C 74 % 1009,2 hPa 0,0 l/m 13,5 km/h (3 Bft) W-NW 302 0 min 0,000 mm 0,0 UV-I 17 W/m -1,3 C -2,6 C 25,7 km/h (4 Bft) 99,17 %
15.01.2016 10:30 2,7 C 75 % 1009,2 hPa 0,0 l/m 16,5 km/h (3 Bft) W 266 0 min 0,000 mm 0,0 UV-I 23 W/m -1,3 C -4,5 C 22,5 km/h (4 Bft) 99,17 %
15.01.2016 10:35 2,4 C 72 % 1009,3 hPa 0,0 l/m 18,3 km/h (3 Bft) W-SW 252 0 min 0,000 mm 0,0 UV-I 45 W/m -2,1 C -5,8 C 27,4 km/h (4 Bft) 100,00 %
15.01.2016 10:40 2,2 C 73 % 1009,5 hPa 0,0 l/m 24,5 km/h (4 Bft) S-SW 207 0 min 0,000 mm 0,0 UV-I 53 W/m -2,1 C -8,6 C 48,3 km/h (6 Bft) 99,13 %
15.01.2016 10:45 1,9 C 77 % 1009,6 hPa 0,0 l/m 24,7 km/h (4 Bft) SW 233 0 min 0,000 mm 0,0 UV-I 56 W/m -1,7 C -9,0 C 46,7 km/h (6 Bft) 98,29 %
15.01.2016 10:50 1,6 C 81 % 1009,4 hPa 0,0 l/m 17,3 km/h (3 Bft) W-SW 242 0 min 0,000 mm 0,0 UV-I 43 W/m -1,3 C -6,3 C 30,6 km/h (5 Bft) 100,00 %
15.01.2016 10:55 1,3 C 81 % 1009,3 hPa 0,0 l/m 17,1 km/h (3 Bft) W 264 0 min 0,000 mm 0,0 UV-I 70 W/m -1,6 C -6,6 C 27,4 km/h (4 Bft) 98,33 %
15.01.2016 11:00 1,3 C 80 % 1009,2 hPa 0,0 l/m 17,7 km/h (3 Bft) W-SW 248 0 min 0,051 mm 0,0 UV-I 102 W/m -1,8 C -6,9 C 29,0 km/h (5 Bft) 96,69 %
15.01.2016 11:05 1,6 C 79 % 1009,3 hPa 0,0 l/m 16,9 km/h (3 Bft) W-SW 252 0 min 0,000 mm 0,0 UV-I 129 W/m -1,6 C -6,1 C 27,4 km/h (4 Bft) 98,11 %
15.01.2016 11:10 1,8 C 78 % 1009,2 hPa 0,0 l/m 15,4 km/h (3 Bft) SW 236 0 min 0,000 mm 0,0 UV-I 174 W/m -1,6 C -5,0 C 22,5 km/h (4 Bft) 96,67 %
15.01.2016 11:15 2,0 C 77 % 1009,2 hPa 0,0 l/m 17,5 km/h (3 Bft) W-SW 245 5 min 0,000 mm 0,2 UV-I 195 W/m -1,6 C -5,9 C 30,6 km/h (5 Bft) 97,39 %
15.01.2016 11:20 2,2 C 77 % 1009,0 hPa 0,0 l/m 17,3 km/h (3 Bft) W-SW 247 5 min 0,000 mm 0,5 UV-I 219 W/m -1,4 C -5,5 C 25,7 km/h (4 Bft) 96,69 %
15.01.2016 11:25 2,6 C 76 % 1009,0 hPa 0,0 l/m 14,6 km/h (3 Bft) SW 217 5 min 0,000 mm 0,7 UV-I 353 W/m -1,2 C -3,6 C 24,1 km/h (4 Bft) 96,67 %
15.01.2016 11:30 2,9 C 73 % 1008,9 hPa 0,0 l/m 17,2 km/h (3 Bft) W 260 5 min 0,000 mm 0,7 UV-I 350 W/m -1,5 C -4,6 C 29,0 km/h (5 Bft) 98,17 %
15.01.2016 11:35 2,9 C 72 % 1008,9 hPa 0,0 l/m 19,8 km/h (3 Bft) W-SW 246 5 min 0,000 mm 0,7 UV-I 371 W/m -1,6 C -5,8 C 27,4 km/h (4 Bft) 100,00 %
15.01.2016 11:45 3,2 C 68 % 1009,1 hPa 0,0 l/m 19,3 km/h (3 Bft) S-SW 192 0 min 0,000 mm 0,0 UV-I 105 W/m -2,1 C -5,2 C 27,4 km/h (4 Bft) 99,68 %
15.01.2016 11:50 2,9 C 70 % 1009,3 hPa 0,0 l/m 16,7 km/h (3 Bft) SW 229 0 min 0,000 mm 0,0 UV-I 62 W/m -2,0 C -4,4 C 27,4 km/h (4 Bft) 99,17 %
15.01.2016 11:55 2,8 C 70 % 1009,2 hPa 0,0 l/m 22,6 km/h (4 Bft) W-SW 258 0 min 0,000 mm 0,0 UV-I 74 W/m -2,1 C -7,1 C 43,5 km/h (6 Bft) 99,13 %
15.01.2016 12:00 2,6 C 70 % 1009,2 hPa 0,0 l/m 21,9 km/h (4 Bft) W-SW 250 0 min 0,127 mm 0,0 UV-I 105 W/m -2,3 C -7,1 C 37,0 km/h (5 Bft) 100,00 %
15.01.2016 12:05 2,5 C 71 % 1009,2 hPa 0,0 l/m 21,1 km/h (4 Bft) W 271 0 min 0,000 mm 0,0 UV-I 103 W/m -2,2 C -6,9 C 38,6 km/h (5 Bft) 99,15 %
15.01.2016 12:10 2,4 C 72 % 1009,2 hPa 0,0 l/m 19,7 km/h (3 Bft) W 259 0 min 0,000 mm 0,0 UV-I 103 W/m -2,1 C -6,4 C 30,6 km/h (5 Bft) 99,13 %
15.01.2016 12:15 2,4 C 73 % 1009,1 hPa 0,0 l/m 16,4 km/h (3 Bft) W-SW 244 0 min 0,000 mm 0,0 UV-I 105 W/m -1,9 C -4,8 C 25,7 km/h (4 Bft) 100,00 %
15.01.2016 12:20 2,4 C 71 % 1009,1 hPa 0,0 l/m 22,7 km/h (4 Bft) S-SW 205 0 min 0,000 mm 0,0 UV-I 142 W/m -2,3 C -7,6 C 48,3 km/h (6 Bft) 100,00 %
15.01.2016 12:25 2,4 C 71 % 1009,1 hPa 0,0 l/m 26,4 km/h (4 Bft) SW 229 0 min 0,000 mm 0,3 UV-I 193 W/m -2,3 C -8,9 C 43,5 km/h (6 Bft) 99,11 %
15.01.2016 12:30 2,6 C 72 % 1009,1 hPa 0,0 l/m 20,9 km/h (4 Bft) SW 223 5 min 0,000 mm 0,5 UV-I 226 W/m -1,9 C -6,7 C 33,8 km/h (5 Bft) 100,00 %
15.01.2016 12:35 2,6 C 71 % 1009,0 hPa 0,0 l/m 21,4 km/h (4 Bft) SW 221 5 min 0,000 mm 0,5 UV-I 206 W/m -2,1 C -6,9 C 35,4 km/h (5 Bft) 99,11 %
15.01.2016 12:40 2,6 C 71 % 1009,0 hPa 0,0 l/m 19,4 km/h (3 Bft) W 269 0 min 0,000 mm 0,2 UV-I 161 W/m -2,1 C -6,0 C 32,2 km/h (5 Bft) 99,17 %
15.01.2016 12:45 2,6 C 71 % 1009,0 hPa 0,0 l/m 19,1 km/h (3 Bft) W-SW 250 0 min 0,000 mm 0,0 UV-I 130 W/m -2,1 C -5,9 C 29,0 km/h (5 Bft) 97,50 %
15.01.2016 12:50 2,6 C 71 % 1009,0 hPa 0,0 l/m 19,3 km/h (3 Bft) W 269 0 min 0,000 mm 0,0 UV-I 107 W/m -2,1 C -6,0 C 32,2 km/h (5 Bft) 96,52 %
15.01.2016 12:55 2,5 C 70 % 1009,0 hPa 0,0 l/m 19,6 km/h (3 Bft) SW 234 0 min 0,000 mm 0,0 UV-I 84 W/m -2,4 C -6,2 C 33,8 km/h (5 Bft) 97,46 %
15.01.2016 13:00 2,4 C 70 % 1009,0 hPa 0,0 l/m 16,6 km/h (3 Bft) W-SW 244 0 min 0,000 mm 0,0 UV-I 70 W/m -2,5 C -4,9 C 30,6 km/h (5 Bft) 95,50 %
15.01.2016 13:05 2,4 C 70 % 1008,9 hPa 0,0 l/m 21,3 km/h (4 Bft) W 266 0 min 0,102 mm 0,0 UV-I 66 W/m -2,5 C -7,1 C 38,6 km/h (5 Bft) 98,31 %
15.01.2016 13:10 2,4 C 70 % 1008,9 hPa 0,0 l/m 19,6 km/h (3 Bft) S-SW 207 0 min 0,000 mm 0,0 UV-I 57 W/m -2,5 C -6,4 C 38,6 km/h (5 Bft) 96,67 %
15.01.2016 13:15 2,4 C 70 % 1008,9 hPa 0,0 l/m 22,9 km/h (4 Bft) W-SW 246 0 min 0,000 mm 0,0 UV-I 53 W/m -2,5 C -7,7 C 33,8 km/h (5 Bft) 99,19 %
15.01.2016 13:20 2,3 C 70 % 1008,8 hPa 0,0 l/m 19,7 km/h (3 Bft) SW 235 0 min 0,000 mm 0,0 UV-I 52 W/m -2,6 C -6,5 C 29,0 km/h (5 Bft) 99,06 %
15.01.2016 13:25 2,3 C 71 % 1008,9 hPa 0,0 l/m 18,3 km/h (3 Bft) SW 232 0 min 0,000 mm 0,0 UV-I 44 W/m -2,4 C -5,9 C 27,4 km/h (4 Bft) 100,00 %
15.01.2016 13:30 2,3 C 71 % 1008,9 hPa 0,0 l/m 21,8 km/h (4 Bft) W-SW 246 0 min 0,000 mm 0,0 UV-I 46 W/m -2,4 C -7,4 C 33,8 km/h (5 Bft) 100,00 %
15.01.2016 13:35 2,2 C 72 % 1009,1 hPa 0,0 l/m 27,9 km/h (4 Bft) SW 232 0 min 0,000 mm 0,0 UV-I 55 W/m -2,3 C -9,7 C 49,9 km/h (6 Bft) 100,00 %
15.01.2016 13:40 2,1 C 75 % 1009,1 hPa 0,0 l/m 23,7 km/h (4 Bft) W-SW 242 0 min 0,000 mm 0,0 UV-I 99 W/m -1,9 C -8,4 C 32,2 km/h (5 Bft) 100,00 %
15.01.2016 13:45 1,9 C 77 % 1009,1 hPa 0,0 l/m 21,6 km/h (4 Bft) SW 234 0 min 0,000 mm 0,0 UV-I 95 W/m -1,7 C -7,9 C 33,8 km/h (5 Bft) 99,13 %
15.01.2016 13:50 1,8 C 80 % 1009,1 hPa 0,0 l/m 16,3 km/h (3 Bft) SW 229 0 min 0,000 mm 0,0 UV-I 107 W/m -1,3 C -5,5 C 29,0 km/h (5 Bft) 99,19 %
15.01.2016 13:55 1,6 C 82 % 1009,0 hPa 0,0 l/m 21,2 km/h (4 Bft) SW 223 0 min 0,000 mm 0,0 UV-I 136 W/m -1,1 C -8,1 C 32,2 km/h (5 Bft) 98,17 %
15.01.2016 14:00 1,4 C 83 % 1009,2 hPa 0,0 l/m 22,8 km/h (4 Bft) W 266 0 min 0,076 mm 0,0 UV-I 142 W/m -1,2 C -9,0 C 43,5 km/h (6 Bft) 100,00 %
15.01.2016 14:05 1,3 C 85 % 1009,2 hPa 0,0 l/m 21,5 km/h (4 Bft) S-SW 213 0 min 0,000 mm 0,0 UV-I 106 W/m -0,9 C -8,6 C 37,0 km/h (5 Bft) 100,00 %
15.01.2016 14:20 0,7 C 90 % 1009,2 hPa 0,0 l/m 16,5 km/h (3 Bft) W-SW 246 0 min 0,000 mm 0,0 UV-I 41 W/m -0,7 C -7,0 C 25,7 km/h (4 Bft) 99,71 %
15.01.2016 14:25 0,7 C 90 % 1009,3 hPa 0,0 l/m 17,0 km/h (3 Bft) W-SW 237 0 min 0,000 mm 0,0 UV-I 65 W/m -0,7 C -7,3 C 30,6 km/h (5 Bft) 98,21 %
15.01.2016 14:30 0,7 C 90 % 1009,3 hPa 0,0 l/m 17,1 km/h (3 Bft) SW 232 0 min 0,000 mm 0,0 UV-I 69 W/m -0,7 C -7,3 C 30,6 km/h (5 Bft) 99,00 %
15.01.2016 14:35 0,8 C 90 % 1009,3 hPa 0,0 l/m 16,7 km/h (3 Bft) SW 226 0 min 0,000 mm 0,0 UV-I 58 W/m -0,6 C -7,0 C 29,0 km/h (5 Bft) 99,29 %
15.01.2016 14:40 0,8 C 89 % 1009,2 hPa 0,0 l/m 20,2 km/h (4 Bft) SW 228 0 min 0,000 mm 0,0 UV-I 59 W/m -0,8 C -8,7 C 29,0 km/h (5 Bft) 97,46 %
15.01.2016 14:45 1,0 C 88 % 1009,2 hPa 0,0 l/m 17,6 km/h (3 Bft) W-SW 251 0 min 0,000 mm 0,0 UV-I 62 W/m -0,8 C -7,2 C 29,0 km/h (5 Bft) 97,30 %
15.01.2016 14:50 1,1 C 87 % 1009,3 hPa 0,0 l/m 19,4 km/h (3 Bft) S-SW 211 0 min 0,000 mm 0,0 UV-I 56 W/m -0,8 C -7,9 C 29,0 km/h (5 Bft) 96,69 %
15.01.2016 14:55 1,2 C 86 % 1009,2 hPa 0,0 l/m 17,7 km/h (3 Bft) SW 225 0 min 0,000 mm 0,0 UV-I 63 W/m -0,9 C -7,0 C 33,8 km/h (5 Bft) 100,00 %
15.01.2016 15:00 1,3 C 85 % 1009,3 hPa 0,0 l/m 20,5 km/h (4 Bft) W 275 0 min 0,025 mm 0,0 UV-I 66 W/m -0,9 C -8,2 C 35,4 km/h (5 Bft) 96,07 %
15.01.2016 15:05 1,3 C 84 % 1009,3 hPa 0,0 l/m 21,6 km/h (4 Bft) W-SW 248 0 min 0,000 mm 0,0 UV-I 58 W/m -1,1 C -8,6 C 37,0 km/h (5 Bft) 97,46 %
15.01.2016 15:10 1,4 C 83 % 1009,5 hPa 0,0 l/m 21,8 km/h (4 Bft) S-SW 207 0 min 0,000 mm 0,0 UV-I 60 W/m -1,2 C -8,6 C 37,0 km/h (5 Bft) 96,49 %
15.01.2016 15:15 1,4 C 82 % 1009,6 hPa 0,0 l/m 21,0 km/h (4 Bft) W 263 0 min 0,000 mm 0,0 UV-I 62 W/m -1,3 C -8,3 C 33,8 km/h (5 Bft) 99,19 %
15.01.2016 15:20 1,5 C 82 % 1009,7 hPa 0,0 l/m 20,3 km/h (4 Bft) W-SW 242 0 min 0,000 mm 0,0 UV-I 48 W/m -1,2 C -7,8 C 35,4 km/h (5 Bft) 100,00 %
15.01.2016 15:25 1,5 C 82 % 1009,9 hPa 0,0 l/m 17,5 km/h (3 Bft) W-SW 238 0 min 0,000 mm 0,0 UV-I 28 W/m -1,2 C -6,5 C 29,0 km/h (5 Bft) 97,58 %
15.01.2016 15:30 1,4 C 82 % 1009,9 hPa 0,0 l/m 21,7 km/h (4 Bft) SW 223 0 min 0,000 mm 0,0 UV-I 23 W/m -1,3 C -8,6 C 37,0 km/h (5 Bft) 99,06 %
15.01.2016 15:35 1,3 C 83 % 1010,0 hPa 0,0 l/m 16,7 km/h (3 Bft) S-SW 208 0 min 0,000 mm 0,0 UV-I 19 W/m -1,3 C -6,3 C 29,0 km/h (5 Bft) 99,15 %
15.01.2016 15:40 1,2 C 84 % 1010,1 hPa 0,0 l/m 18,7 km/h (3 Bft) W-SW 237 0 min 0,000 mm 0,0 UV-I 20 W/m -1,2 C -7,5 C 32,2 km/h (5 Bft) 99,15 %
15.01.2016 15:45 0,9 C 85 % 1010,1 hPa 0,0 l/m 20,1 km/h (4 Bft) W-SW 238 0 min 0,000 mm 0,0 UV-I 15 W/m -1,3 C -8,5 C 37,0 km/h (5 Bft) 100,00 %
15.01.2016 15:50 0,7 C 87 % 1010,0 hPa 0,0 l/m 20,8 km/h (4 Bft) SW 234 0 min 0,000 mm 0,0 UV-I 13 W/m -1,2 C -9,1 C 30,6 km/h (5 Bft) 100,00 %
15.01.2016 15:55 0,6 C 88 % 1010,0 hPa 0,0 l/m 15,2 km/h (3 Bft) W 271 0 min 0,000 mm 0,0 UV-I 12 W/m -1,2 C -6,4 C 25,7 km/h (4 Bft) 98,32 %
15.01.2016 16:00 0,5 C 89 % 1009,9 hPa 0,0 l/m 16,6 km/h (3 Bft) W-SW 252 0 min 0,026 mm 0,0 UV-I 13 W/m -1,1 C -7,3 C 30,6 km/h (5 Bft) 99,07 %
15.01.2016 16:05 0,4 C 89 % 1010,0 hPa 0,0 l/m 17,4 km/h (3 Bft) W-SW 252 0 min 0,000 mm 0,0 UV-I 12 W/m -1,2 C -7,8 C 27,4 km/h (4 Bft) 100,00 %
15.01.2016 16:10 0,4 C 88 % 1010,0 hPa 0,0 l/m 18,0 km/h (3 Bft) SW 236 0 min 0,000 mm 0,0 UV-I 11 W/m -1,3 C -8,1 C 32,2 km/h (5 Bft) 100,00 %
15.01.2016 16:15 0,5 C 88 % 1010,1 hPa 0,0 l/m 16,0 km/h (3 Bft) SW 229 0 min 0,000 mm 0,0 UV-I 8 W/m -1,3 C -7,0 C 30,6 km/h (5 Bft) 99,17 %
15.01.2016 16:20 0,6 C 88 % 1010,2 hPa 0,0 l/m 14,3 km/h (3 Bft) SW 229 0 min 0,000 mm 0,0 UV-I 7 W/m -1,2 C -5,8 C 24,1 km/h (4 Bft) 100,00 %
15.01.2016 16:25 0,6 C 87 % 1010,2 hPa 0,0 l/m 15,0 km/h (3 Bft) W 270 0 min 0,000 mm 0,0 UV-I 3 W/m -1,3 C -6,3 C 25,7 km/h (4 Bft) 98,20 %
15.01.2016 16:30 0,6 C 87 % 1010,3 hPa 0,0 l/m 19,2 km/h (3 Bft) W-SW 257 0 min 0,000 mm 0,0 UV-I 0 W/m -1,3 C -8,5 C 35,4 km/h (5 Bft) 99,15 %
15.01.2016 16:35 0,6 C 87 % 1010,3 hPa 0,0 l/m 17,1 km/h (3 Bft) SW 236 0 min 0,000 mm 0,0 UV-I 0 W/m -1,3 C -7,4 C 24,1 km/h (4 Bft) 99,11 %
15.01.2016 16:40 0,5 C 87 % 1010,3 hPa 0,0 l/m 14,2 km/h (3 Bft) SW 229 0 min 0,000 mm 0,0 UV-I 0 W/m -1,4 C -5,9 C 29,0 km/h (5 Bft) 99,17 %
15.01.2016 16:45 0,4 C 87 % 1010,3 hPa 0,0 l/m 17,6 km/h (3 Bft) W-SW 239 0 min 0,000 mm 0,0 UV-I 0 W/m -1,5 C -7,9 C 29,0 km/h (5 Bft) 96,61 %
15.01.2016 16:50 0,4 C 88 % 1010,3 hPa 0,0 l/m 17,6 km/h (3 Bft) W-NW 285 0 min 0,000 mm 0,0 UV-I 0 W/m -1,3 C -7,9 C 27,4 km/h (4 Bft) 97,52 %
15.01.2016 16:55 0,3 C 88 % 1010,3 hPa 0,0 l/m 21,1 km/h (4 Bft) SW 227 0 min 0,000 mm 0,0 UV-I 0 W/m -1,4 C -9,7 C 35,4 km/h (5 Bft) 97,30 %
15.01.2016 17:00 0,3 C 88 % 1010,3 hPa 0,0 l/m 20,2 km/h (4 Bft) W-SW 255 0 min 0,025 mm 0,0 UV-I 0 W/m -1,4 C -9,3 C 32,2 km/h (5 Bft) 96,69 %
15.01.2016 17:05 0,3 C 88 % 1010,4 hPa 0,0 l/m 16,5 km/h (3 Bft) W-SW 253 0 min 0,000 mm 0,0 UV-I 0 W/m -1,4 C -7,5 C 25,7 km/h (4 Bft) 97,25 %
15.01.2016 17:10 0,3 C 88 % 1010,5 hPa 0,0 l/m 12,9 km/h (3 Bft) SW 233 0 min 0,000 mm 0,0 UV-I 0 W/m -1,4 C -5,3 C 22,5 km/h (4 Bft) 97,67 %
15.01.2016 17:15 0,3 C 88 % 1010,5 hPa 0,0 l/m 15,0 km/h (3 Bft) SW 219 0 min 0,000 mm 0,0 UV-I 0 W/m -1,4 C -6,6 C 24,1 km/h (4 Bft) 97,25 %
15.01.2016 17:20 0,3 C 87 % 1010,6 hPa 0,0 l/m 14,6 km/h (3 Bft) SW 234 0 min 0,000 mm 0,0 UV-I 0 W/m -1,6 C -6,4 C 20,9 km/h (4 Bft) 99,17 %
15.01.2016 17:25 0,3 C 87 % 1010,6 hPa 0,0 l/m 13,6 km/h (3 Bft) SW 226 0 min 0,000 mm 0,0 UV-I 0 W/m -1,6 C -5,7 C 22,5 km/h (4 Bft) 99,11 %
15.01.2016 17:30 0,4 C 87 % 1010,6 hPa 0,0 l/m 14,0 km/h (3 Bft) SW 226 0 min 0,000 mm 0,0 UV-I 0 W/m -1,5 C -5,9 C 22,5 km/h (4 Bft) 100,00 %
15.01.2016 17:35 0,4 C 86 % 1010,6 hPa 0,0 l/m 13,0 km/h (3 Bft) SW 229 0 min 0,000 mm 0,0 UV-I 0 W/m -1,7 C -5,2 C 20,9 km/h (4 Bft) 100,00 %
15.01.2016 17:40 0,4 C 86 % 1010,7 hPa 0,0 l/m 15,3 km/h (3 Bft) S-SW 192 0 min 0,000 mm 0,0 UV-I 0 W/m -1,7 C -6,7 C 24,1 km/h (4 Bft) 100,00 %
15.01.2016 17:45 0,4 C 85 % 1010,7 hPa 0,0 l/m 14,9 km/h (3 Bft) S-SW 204 0 min 0,000 mm 0,0 UV-I 0 W/m -1,8 C -6,4 C 29,0 km/h (5 Bft) 99,15 %
15.01.2016 17:50 0,5 C 85 % 1010,7 hPa 0,0 l/m 16,2 km/h (3 Bft) SW 222 0 min 0,000 mm 0,0 UV-I 0 W/m -1,7 C -7,1 C 24,1 km/h (4 Bft) 100,00 %
15.01.2016 17:55 0,5 C 85 % 1010,8 hPa 0,0 l/m 18,6 km/h (3 Bft) SW 229 0 min 0,000 mm 0,0 UV-I 0 W/m -1,7 C -8,3 C 29,0 km/h (5 Bft) 99,17 %
15.01.2016 18:10 0,3 C 87 % 1010,8 hPa 0,0 l/m 19,0 km/h (3 Bft) W-SW 252 0 min 0,025 mm 0,0 UV-I 0 W/m -1,6 C -8,8 C 30,6 km/h (5 Bft) 99,17 %
15.01.2016 18:15 0,2 C 87 % 1010,9 hPa 0,0 l/m 21,4 km/h (4 Bft) SW 217 0 min 0,000 mm 0,0 UV-I 0 W/m -1,7 C -10,0 C 29,0 km/h (5 Bft) 99,05 %
15.01.2016 18:20 0,2 C 87 % 1010,9 hPa 0,0 l/m 18,9 km/h (3 Bft) W-SW 253 0 min 0,000 mm 0,0 UV-I 0 W/m -1,7 C -8,8 C 30,6 km/h (5 Bft) 100,00 %
15.01.2016 18:25 0,1 C 88 % 1010,8 hPa 0,0 l/m 18,9 km/h (3 Bft) SW 232 0 min 0,000 mm 0,0 UV-I 0 W/m -1,6 C -9,0 C 27,4 km/h (4 Bft) 99,08 %
15.01.2016 18:30 0,0 C 88 % 1010,9 hPa 0,0 l/m 16,4 km/h (3 Bft) S-SW 207 0 min 0,000 mm 0,0 UV-I 0 W/m -1,7 C -7,8 C 25,7 km/h (4 Bft) 99,17 %
15.01.2016 18:35 0,1 C 88 % 1010,9 hPa 0,0 l/m 16,6 km/h (3 Bft) W-SW 254 0 min 0,000 mm 0,0 UV-I 0 W/m -1,6 C -7,8 C 24,1 km/h (4 Bft) 99,15 %
15.01.2016 18:40 0,1 C 88 % 1011,0 hPa 0,0 l/m 13,5 km/h (3 Bft) SW 228 0 min 0,000 mm 0,0 UV-I 0 W/m -1,6 C -5,9 C 25,7 km/h (4 Bft) 100,00 %
15.01.2016 18:45 0,1 C 88 % 1011,0 hPa 0,0 l/m 14,9 km/h (3 Bft) SW 236 0 min 0,000 mm 0,0 UV-I 0 W/m -1,6 C -6,8 C 22,5 km/h (4 Bft) 98,26 %
15.01.2016 18:50 0,1 C 88 % 1011,1 hPa 0,0 l/m 14,7 km/h (3 Bft) W-SW 246 0 min 0,000 mm 0,0 UV-I 0 W/m -1,6 C -6,7 C 24,1 km/h (4 Bft) 96,85 %
15.01.2016 18:55 0,1 C 87 % 1011,1 hPa 0,0 l/m 12,5 km/h (3 Bft) SW 232 0 min 0,000 mm 0,0 UV-I 0 W/m -1,8 C -5,2 C 17,7 km/h (3 Bft) 97,22 %
15.01.2016 19:00 0,2 C 86 % 1011,1 hPa 0,0 l/m 14,1 km/h (3 Bft) W-SW 252 0 min 0,000 mm 0,0 UV-I 0 W/m -1,9 C -6,2 C 20,9 km/h (4 Bft) 96,61 %
15.01.2016 19:05 0,2 C 86 % 1011,1 hPa 0,0 l/m 15,7 km/h (3 Bft) W-SW 251 0 min 0,026 mm 0,0 UV-I 0 W/m -1,9 C -7,2 C 25,7 km/h (4 Bft) 97,50 %
15.01.2016 19:10 0,2 C 86 % 1011,2 hPa 0,0 l/m 14,2 km/h (3 Bft) SW 231 0 min 0,000 mm 0,0 UV-I 0 W/m -1,9 C -6,2 C 22,5 km/h (4 Bft) 97,39 %
15.01.2016 19:15 0,2 C 86 % 1011,2 hPa 0,0 l/m 14,0 km/h (3 Bft) W 278 0 min 0,000 mm 0,0 UV-I 0 W/m -1,9 C -6,1 C 20,9 km/h (4 Bft) 97,46 %
15.01.2016 19:20 0,2 C 86 % 1011,2 hPa 0,0 l/m 13,9 km/h (3 Bft) SW 232 0 min 0,000 mm 0,0 UV-I 0 W/m -1,9 C -6,1 C 25,7 km/h (4 Bft) 99,19 %
15.01.2016 19:25 0,2 C 86 % 1011,3 hPa 0,0 l/m 12,9 km/h (3 Bft) W 273 0 min 0,000 mm 0,0 UV-I 0 W/m -1,9 C -5,4 C 20,9 km/h (4 Bft) 98,21 %
15.01.2016 19:30 0,2 C 86 % 1011,5 hPa 0,0 l/m 13,3 km/h (3 Bft) W-SW 243 0 min 0,000 mm 0,0 UV-I 0 W/m -1,9 C -5,7 C 19,3 km/h (3 Bft) 99,17 %
15.01.2016 19:35 0,2 C 86 % 1011,3 hPa 0,0 l/m 11,8 km/h (2 Bft) SW 220 0 min 0,000 mm 0,0 UV-I 0 W/m -1,9 C -4,6 C 20,9 km/h (4 Bft) 99,05 %
15.01.2016 19:40 0,1 C 87 % 1011,4 hPa 0,0 l/m 14,9 km/h (3 Bft) SW 221 0 min 0,000 mm 0,0 UV-I 0 W/m -1,8 C -6,8 C 20,9 km/h (4 Bft) 100,00 %
15.01.2016 19:45 0,1 C 87 % 1011,4 hPa 0,0 l/m 12,9 km/h (3 Bft) SW 231 0 min 0,000 mm 0,0 UV-I 0 W/m -1,8 C -5,5 C 22,5 km/h (4 Bft) 98,31 %
15.01.2016 19:50 0,0 C 88 % 1011,4 hPa 0,0 l/m 17,5 km/h (3 Bft) W-SW 244 0 min 0,000 mm 0,0 UV-I 0 W/m -1,7 C -8,4 C 27,4 km/h (4 Bft) 100,00 %
15.01.2016 19:55 -0,1 C 89 % 1011,4 hPa 0,0 l/m 15,4 km/h (3 Bft) W 261 0 min 0,000 mm 0,0 UV-I 0 W/m -1,7 C -7,3 C 22,5 km/h (4 Bft) 99,17 %
15.01.2016 20:00 -0,2 C 89 % 1011,4 hPa 0,0 l/m 14,8 km/h (3 Bft) W-SW 251 0 min 0,025 mm 0,0 UV-I 0 W/m -1,8 C -7,1 C 22,5 km/h (4 Bft) 99,19 %
15.01.2016 20:05 -0,3 C 90 % 1011,4 hPa 0,0 l/m 14,4 km/h (3 Bft) W-SW 251 0 min 0,000 mm 0,0 UV-I 0 W/m -1,7 C -7,0 C 27,4 km/h (4 Bft) 100,00 %
15.01.2016 20:10 -0,3 C 91 % 1011,4 hPa 0,0 l/m 13,3 km/h (3 Bft) SW 219 0 min 0,000 mm 0,0 UV-I 0 W/m -1,6 C -6,3 C 24,1 km/h (4 Bft) 100,00 %
15.01.2016 20:15 -0,4 C 91 % 1011,4 hPa 0,0 l/m 13,0 km/h (3 Bft) SW 226 0 min 0,000 mm 0,0 UV-I 0 W/m -1,7 C -6,2 C 24,1 km/h (4 Bft) 98,29 %
15.01.2016 20:20 -0,4 C 91 % 1011,4 hPa 0,0 l/m 13,7 km/h (3 Bft) W 259 0 min 0,000 mm 0,0 UV-I 0 W/m -1,7 C -6,6 C 22,5 km/h (4 Bft) 100,00 %
15.01.2016 20:25 -0,4 C 91 % 1011,3 hPa 0,0 l/m 15,3 km/h (3 Bft) W-SW 250 0 min 0,000 mm 0,0 UV-I 0 W/m -1,7 C -7,6 C 24,1 km/h (4 Bft) 99,17 %
15.01.2016 20:30 -0,4 C 91 % 1011,3 hPa 0,0 l/m 13,9 km/h (3 Bft) W-SW 238 0 min 0,000 mm 0,0 UV-I 0 W/m -1,7 C -6,8 C 22,5 km/h (4 Bft) 100,00 %
15.01.2016 20:35 -0,4 C 91 % 1011,3 hPa 0,0 l/m 15,3 km/h (3 Bft) W-SW 257 0 min 0,000 mm 0,0 UV-I 0 W/m -1,7 C -7,6 C 20,9 km/h (4 Bft) 100,00 %
15.01.2016 20:40 -0,4 C 91 % 1011,4 hPa 0,0 l/m 13,7 km/h (3 Bft) W-SW 243 0 min 0,000 mm 0,0 UV-I 0 W/m -1,7 C -6,6 C 22,5 km/h (4 Bft) 98,29 %
15.01.2016 20:45 -0,4 C 92 % 1011,3 hPa 0,0 l/m 14,7 km/h (3 Bft) W-SW 250 0 min 0,000 mm 0,0 UV-I 0 W/m -1,5 C -7,3 C 24,1 km/h (4 Bft) 100,00 %
15.01.2016 20:50 -0,4 C 92 % 1011,4 hPa 0,0 l/m 16,3 km/h (3 Bft) W 261 0 min 0,000 mm 0,0 UV-I 0 W/m -1,5 C -8,2 C 27,4 km/h (4 Bft) 96,69 %
15.01.2016 20:55 -0,4 C 92 % 1011,4 hPa 0,0 l/m 15,4 km/h (3 Bft) S-SW 196 0 min 0,000 mm 0,0 UV-I 0 W/m -1,5 C -7,7 C 25,7 km/h (4 Bft) 97,37 %
15.01.2016 21:00 -0,4 C 92 % 1011,4 hPa 0,0 l/m 14,1 km/h (3 Bft) SW 232 0 min 0,000 mm 0,0 UV-I 0 W/m -1,5 C -6,9 C 22,5 km/h (4 Bft) 98,35 %
15.01.2016 21:05 -0,4 C 92 % 1011,5 hPa 0,0 l/m 12,0 km/h (2 Bft) SW 235 0 min 0,000 mm 0,0 UV-I 0 W/m -1,5 C -5,5 C 19,3 km/h (3 Bft) 97,44 %
15.01.2016 21:10 -0,4 C 92 % 1011,4 hPa 0,0 l/m 16,4 km/h (3 Bft) W-SW 239 0 min 0,000 mm 0,0 UV-I 0 W/m -1,5 C -8,3 C 25,7 km/h (4 Bft) 97,32 %
15.01.2016 21:15 -0,4 C 93 % 1011,3 hPa 0,0 l/m 14,8 km/h (3 Bft) SW 226 0 min 0,000 mm 0,0 UV-I 0 W/m -1,4 C -7,3 C 24,1 km/h (4 Bft) 97,39 %
15.01.2016 21:20 -0,4 C 93 % 1011,4 hPa 0,0 l/m 16,5 km/h (3 Bft) W-SW 240 0 min 0,000 mm 0,0 UV-I 0 W/m -1,4 C -8,3 C 25,7 km/h (4 Bft) 98,29 %
15.01.2016 21:25 -0,3 C 93 % 1011,4 hPa 0,0 l/m 15,0 km/h (3 Bft) W-SW 245 0 min 0,000 mm 0,0 UV-I 0 W/m -1,3 C -7,3 C 27,4 km/h (4 Bft) 98,31 %
15.01.2016 21:30 -0,3 C 92 % 1011,4 hPa 0,0 l/m 17,1 km/h (3 Bft) W-SW 257 0 min 0,000 mm 0,0 UV-I 0 W/m -1,4 C -8,6 C 30,6 km/h (5 Bft) 99,17 %
15.01.2016 21:35 -0,3 C 93 % 1011,4 hPa 0,0 l/m 16,1 km/h (3 Bft) SW 232 0 min 0,000 mm 0,0 UV-I 0 W/m -1,3 C -8,0 C 25,7 km/h (4 Bft) 99,10 %
15.01.2016 21:40 -0,3 C 93 % 1011,5 hPa 0,0 l/m 14,3 km/h (3 Bft) S-SW 213 0 min 0,000 mm 0,0 UV-I 0 W/m -1,3 C -6,9 C 24,1 km/h (4 Bft) 98,43 %
15.01.2016 21:45 -0,3 C 93 % 1011,4 hPa 0,0 l/m 16,1 km/h (3 Bft) SW 223 0 min 0,000 mm 0,0 UV-I 0 W/m -1,3 C -8,0 C 25,7 km/h (4 Bft) 100,00 %
15.01.2016 21:50 -0,3 C 93 % 1011,4 hPa 0,0 l/m 17,5 km/h (3 Bft) SW 232 0 min 0,000 mm 0,0 UV-I 0 W/m -1,3 C -8,8 C 27,4 km/h (4 Bft) 99,17 %
15.01.2016 21:55 -0,3 C 93 % 1011,3 hPa 0,0 l/m 17,5 km/h (3 Bft) W-SW 248 0 min 0,000 mm 0,0 UV-I 0 W/m -1,3 C -8,8 C 32,2 km/h (5 Bft) 100,00 %
15.01.2016 22:00 -0,3 C 93 % 1011,4 hPa 0,0 l/m 15,7 km/h (3 Bft) W 267 0 min 0,000 mm 0,0 UV-I 0 W/m -1,3 C -7,8 C 24,1 km/h (4 Bft) 100,00 %
15.01.2016 22:05 -0,3 C 93 % 1011,4 hPa 0,0 l/m 16,8 km/h (3 Bft) W-SW 240 0 min 0,000 mm 0,0 UV-I 0 W/m -1,3 C -8,4 C 25,7 km/h (4 Bft) 98,35 %
15.01.2016 22:10 -0,3 C 93 % 1011,4 hPa 0,0 l/m 17,6 km/h (3 Bft) S-SW 204 0 min 0,000 mm 0,0 UV-I 0 W/m -1,3 C -8,8 C 29,0 km/h (5 Bft) 100,00 %
15.01.2016 22:15 -0,3 C 93 % 1011,5 hPa 0,0 l/m 16,3 km/h (3 Bft) W-SW 254 0 min 0,000 mm 0,0 UV-I 0 W/m -1,3 C -8,1 C 30,6 km/h (5 Bft) 98,15 %
15.01.2016 22:20 -0,3 C 93 % 1011,5 hPa 0,0 l/m 17,7 km/h (3 Bft) S-SW 211 0 min 0,000 mm 0,0 UV-I 0 W/m -1,3 C -8,9 C 27,4 km/h (4 Bft) 99,17 %
15.01.2016 22:25 -0,3 C 93 % 1011,6 hPa 0,0 l/m 16,5 km/h (3 Bft) W-SW 240 0 min 0,000 mm 0,0 UV-I 0 W/m -1,3 C -8,2 C 25,7 km/h (4 Bft) 97,09 %
15.01.2016 22:30 -0,4 C 94 % 1011,6 hPa 0,0 l/m 15,1 km/h (3 Bft) SW 234 0 min 0,000 mm 0,0 UV-I 0 W/m -1,2 C -7,5 C 30,6 km/h (5 Bft) 98,55 %
15.01.2016 22:35 -0,4 C 94 % 1011,8 hPa 0,0 l/m 13,1 km/h (3 Bft) S-SW 192 0 min 0,000 mm 0,0 UV-I 0 W/m -1,2 C -6,2 C 22,5 km/h (4 Bft) 99,15 %
15.01.2016 22:40 -0,4 C 94 % 1011,8 hPa 0,0 l/m 12,5 km/h (3 Bft) W-SW 243 0 min 0,000 mm 0,0 UV-I 0 W/m -1,2 C -5,8 C 27,4 km/h (4 Bft) 99,15 %
15.01.2016 22:45 -0,4 C 94 % 1011,9 hPa 0,0 l/m 13,0 km/h (3 Bft) SW 219 0 min 0,000 mm 0,0 UV-I 0 W/m -1,2 C -6,2 C 19,3 km/h (3 Bft) 100,00 %
15.01.2016 22:50 -0,4 C 94 % 1011,9 hPa 0,0 l/m 12,8 km/h (3 Bft) SW 236 0 min 0,000 mm 0,0 UV-I 0 W/m -1,2 C -6,0 C 22,5 km/h (4 Bft) 98,31 %
15.01.2016 22:55 -0,4 C 94 % 1011,9 hPa 0,0 l/m 12,1 km/h (2 Bft) SW 225 0 min 0,000 mm 0,0 UV-I 0 W/m -1,2 C -5,5 C 20,9 km/h (4 Bft) 98,25 %
15.01.2016 23:00 -0,3 C 94 % 1011,9 hPa 0,0 l/m 12,9 km/h (3 Bft) SW 234 0 min 0,000 mm 0,0 UV-I 0 W/m -1,1 C -6,0 C 20,9 km/h (4 Bft) 97,58 %
15.01.2016 23:05 -0,3 C 94 % 1011,9 hPa 0,0 l/m 15,9 km/h (3 Bft) SW 234 0 min 0,000 mm 0,0 UV-I 0 W/m -1,1 C -7,9 C 29,0 km/h (5 Bft) 96,92 %
15.01.2016 23:15 -0,4 C 94 % 1012,0 hPa 0,0 l/m 13,6 km/h (3 Bft) S-SW 208 0 min 0,000 mm 0,0 UV-I 0 W/m -1,2 C -6,6 C 20,9 km/h (4 Bft) 97,19 %
15.01.2016 23:20 -0,4 C 94 % 1011,9 hPa 0,0 l/m 13,4 km/h (3 Bft) W-SW 237 0 min 0,000 mm 0,0 UV-I 0 W/m -1,2 C -6,4 C 22,5 km/h (4 Bft) 98,21 %
15.01.2016 23:25 -0,4 C 94 % 1011,9 hPa 0,0 l/m 13,7 km/h (3 Bft) SW 219 0 min 0,000 mm 0,0 UV-I 0 W/m -1,2 C -6,6 C 24,1 km/h (4 Bft) 96,67 %
15.01.2016 23:30 -0,4 C 94 % 1011,9 hPa 0,0 l/m 16,5 km/h (3 Bft) SW 234 0 min 0,000 mm 0,0 UV-I 0 W/m -1,2 C -8,3 C 29,0 km/h (5 Bft) 99,13 %
15.01.2016 23:35 -0,4 C 94 % 1012,0 hPa 0,0 l/m 15,1 km/h (3 Bft) W-SW 243 0 min 0,000 mm 0,0 UV-I 0 W/m -1,2 C -7,5 C 27,4 km/h (4 Bft) 99,19 %
15.01.2016 23:40 -0,3 C 94 % 1012,0 hPa 0,0 l/m 11,7 km/h (2 Bft) SW 221 0 min 0,000 mm 0,0 UV-I 0 W/m -1,1 C -5,1 C 25,7 km/h (4 Bft) 98,21 %
15.01.2016 23:45 -0,3 C 94 % 1012,0 hPa 0,0 l/m 16,7 km/h (3 Bft) SW 231 0 min 0,000 mm 0,0 UV-I 0 W/m -1,1 C -8,3 C 30,6 km/h (5 Bft) 98,29 %
15.01.2016 23:50 -0,3 C 94 % 1012,1 hPa 0,0 l/m 15,1 km/h (3 Bft) SW 227 0 min 0,000 mm 0,0 UV-I 0 W/m -1,1 C -7,4 C 25,7 km/h (4 Bft) 99,17 %
15.01.2016 23:55 -0,3 C 94 % 1012,1 hPa 0,0 l/m 15,7 km/h (3 Bft) SW 219 0 min 0,000 mm 0,0 UV-I 0 W/m -1,1 C -7,8 C 29,0 km/h (5 Bft) 99,15 %
_ Min-Zeit 20:15 11:45 07:45 - 02:50 - - - - - - 13:20 18:15 02:50 13:00
Minimum _ -0,4 C 68 % 1008,1 hPa - 6,7 km/h (2 Bft) - - - - - - -2,6 C -10,0 C 11,3 km/h (2 Bft) 95,50 %
_ Max-Zeit 11:45 22:30 23:50 00:00 13:35 - - 09:30 12:00 11:25 11:35 01:30 02:50 13:35 00:05
Maximum _ 3,4 C 94 % 1012,1 hPa 0,0 l/m 27,9 km/h
SW (4 Bft)
- - 5 min 0,127 mm 0,7 UV-I 371 W/m 0,6 C 1,9 C 49,9 km/h
W (6 Bft)
100,00 %
Durchschnitt _ 1,4 C 84 % 1009,7 hPa #0,0 l/m 15,5 km/h (3 Bft) SW - #55 min. #0,711 mm 0,5 UV-I 78 W/m -1,0 C -5,4 C 25,6 km/h (4 Bft) 98,69 %